Tracking 35331 objects as of 17-Sep-2026
HD Live streaming from Space Station
objects crossing your sky now

DELTA 2 R/B(2)

Track DELTA 2 R/B(2) now!


NORAD ID: 25548
Int'l Code: 1998-068C
Launch date: November 22, 1998
Source: United States (US)
Launch site: AIR FORCE EASTERN TEST RANGE (AFETR)

Note: This is a ROCKET BODY
Your satellite tracking list
Your tracking list is empty




NASA's NSSDC Master Catalog

Two Line Element Set (TLE):
1 25548U 98068C   26258.80711197  .00000013  00000-0  00000-0 0  9996
2 25548  19.1232 172.8400 6998777 281.8993  13.2564  2.15168413218732
Source of the keplerian elements: AFSPC